Location: Slidell
(30.2789°N, 89.7378°W)
Time: 13:35:42
(UTC-05:00)

Cosmos 2360 Rocket - Visible Passes

Search period start: 24 July 2016 00:00
Search period end: 03 August 2016 00:00
Orbit: 833 x 846 km, 71.0° (Epoch: 23 July)

Date Brightness Start Highest point End Pass type
(mag) Time Alt. Az. Time Alt. Az. Time Alt. Az.
25 Jul 2.7 05:41:46 10° S 05:47:18 64° ESE 05:52:51 10° NNE visible
26 Jul 2.8 05:26:09 10° S 05:31:38 59° ESE 05:37:11 10° NNE visible
27 Jul 2.9 05:10:33 10° S 05:16:00 55° ESE 05:21:29 10° NNE visible
28 Jul 3.0 04:54:57 10° S 05:00:21 51° ESE 05:05:47 10° NNE visible
29 Jul 3.0 04:39:46 12° S 04:44:42 47° ESE 04:50:05 10° NNE visible
30 Jul 3.1 04:25:10 17° SSE 04:29:03 43° ESE 04:34:22 10° NE visible
31 Jul 3.2 04:10:30 23° SSE 04:13:25 40° ESE 04:18:39 10° NE visible
01 Aug 3.3 03:55:47 28° SE 03:57:47 37° ESE 04:02:55 10° NE visible
01 Aug 3.5 05:37:36 11° WSW 05:41:49 23° WNW 05:46:13 10° N visible
02 Aug 3.3 03:41:01 31° SE 03:42:09 34° ESE 03:47:11 10° NE visible
02 Aug 3.4 05:22:49 15° WSW 05:26:07 25° WNW 05:30:40 10° N visible
